Weather Roundup
Issued by NWS

Home | Current Version | Previous Version | Graphics & Text | Print | Product List | Glossary Off
Versions: 1 2 3 4 5 6 7 8 9 10 11 12 13 14 15 16 17 18 19 20 21 22 23 24 25 26 27 28 29 30 31 32 33 34 35 36 37 38 39 40 41 42 43 44 45 46 47 48 49 50

000
NZUS93 KARX 110310
HRRWXR

CURRENT HOURLY OBSERVATIONS ACROSS
MUCH OF THE UPPER MISSISSIPPI VALLEY
NATIONAL WEATHER SERVICE LA CROSSE WI
1000 PM CDT THU JUL 10 2014


...SOUTHEAST MINNESOTA...


CITY           SKY/WX    TMP DP  RH WIND       PRES   REMARKS
ROCHESTER      MOCLDY    70  59  68 S10       30.07R
ROCHESTER/MAYO FAIR      73  56  57 SE9G16    30.06R
WINONA         MOCLDY    73  59  60 S7        30.05R
AUSTIN         PTCLDY    72  57  60 S8        30.05R
ALBERT LEA     MOCLDY    73  59  60 S8        30.04R
DODGE CENTER   PTCLDY    72  61  68 S10       30.06R
PRESTON        MOCLDY    69  60  73 S7        30.09R
OWATONNA       PTCLDY    73  57  56 S9G16     30.03R
FARIBAULT      PTCLDY    77  54  44 S9G16     30.02R
$$

...ELSEWHERE IN MINNESOTA...


CITY           SKY/WX    TMP DP  RH WIND       PRES   REMARKS
MINNEAPOLIS    MOCLDY    77  59  53 S12       29.99R
INTNL FALLS    MOCLDY    66  58  75 SE3       29.92R
DULUTH         MOCLDY    62  53  72 E9        30.00R
RED WING       MOCLDY    75  59  57 S6G16     30.01R
REDWOOD FALLS  LGT RAIN  76  64  66 S14       29.93R
MANKATO        MOCLDY    75  57  53 S12       30.00R
WORTHINGTON    CLOUDY    73  64  73 S13G22    29.98R
FAIRMONT       CLOUDY    75  55  50 S15       30.00R
$$

...SOUTHWEST WISCONSIN...


CITY           SKY/WX    TMP DP  RH WIND       PRES   REMARKS
LA CROSSE      MOCLDY    76  63  64 S7        30.06R
PRAIRIE DU CHI CLOUDY    71  60  69 CALM      30.09S
BOSCOBEL       CLOUDY    73  61  65 CALM      30.10R
LONE ROCK      MOCLDY    72  64  76 E5        30.11R
PLATTEVILLE    MOCLDY    68  63  83 SE6       30.14R
FORT MC COY    CLOUDY    71  60  69 S5        30.09R
CAMP DOUGLAS   MOCLDY    68  65  89 SE2       30.10R
VIROQUA        FAIR      70  62  73 S7        30.11R
WIS DELLS      PTCLDY    67  60  77 CALM      30.12R
$$

...ELSEWHERE IN WISCONSIN...


CITY           SKY/WX    TMP DP  RH WIND       PRES   REMARKS
MILWAUKEE      CLEAR     64  51  62 S6        30.18R
MADISON        MOCLDY    73  60  63 S8        30.13R
GREEN BAY      PTCLDY    65  52  62 S10       30.14R
EAU CLAIRE     MOCLDY    73  65  75 S8        30.04R
BLACK RVR FLS  FAIR      69  63  81 CALM      30.06S
MEDFORD        CLOUDY    67  64  87 SE6       30.09R
WAUSAU         MOCLDY    70  61  73 S8        30.08R
WIS RAPIDS     MOCLDY    70  62  76 S6        30.11R
MARSHFIELD     MOCLDY    68  64  87 S6        30.09R
RICE LAKE      MOCLDY    71  64  78 SE7       30.04R
$$

...NORTHEAST IOWA...


CITY           SKY/WX    TMP DP  RH WIND       PRES   REMARKS
WATERLOO       PTCLDY    73  58  59 S12       30.07S
DUBUQUE        CLOUDY    67  61  81 S5        30.13R
DECORAH          N/A    N/A N/A N/A MISG        N/A
MASON CITY     CLOUDY    71  60  68 S10       30.06R
CHARLES CITY   MOCLDY    72  59  64 S9        30.08R
OELWEIN        MOCLDY    68  68 100 S9G15     30.10S
$$

...ELSEWHERE IN IOWA...


CITY           SKY/WX    TMP DP  RH WIND       PRES   REMARKS
DES MOINES     MOCLDY    73  59  61 SE12      30.06S
IOWA CITY      MOCLDY    69  63  81 SE6       30.12R
FORT DODGE     CLOUDY    73  59  60 S12G17    30.04R
MARSHALLTOWN   MOCLDY    70  60  70 S9        30.08R
CEDAR RAPIDS   MOCLDY    68  60  75 S3        30.10R
$$

...NORTHERN ILLINOIS...


CITY           SKY/WX    TMP DP  RH WIND       PRES   REMARKS
CHICAGO-OHARE  PTCLDY    67  47  48 SE7       30.17R
DUPAGE         CLEAR     66  52  60 E5        30.16R
CHICAGO-MIDWAY CLEAR     71  51  49 SE5       30.17R
MOLINE         PTCLDY    68  60  75 S7        30.13R
ROCKFORD       MOCLDY    70  57  63 S3        30.16R
STERLING       CLEAR     70  59  68 S6        30.15R
PEORIA         CLEAR     72  57  59 SE3       30.15R
$$

NOTE: "FAIR" INDICATES FEW OR NO CLOUDS BELOW 12,000 FEET WITH NO
SIGNIFICANT WEATHER AND/OR OBSTRUCTIONS TO VISIBILITY. WIND
SPEEDS ARE IN MILES-PER-HOUR.



USA.gov is the U.S. government's official web portal to all federal, state and local government web resources and services.